Date,TemperatureHighF,TemperatureAvgF,TemperatureLowF,DewpointHighF,DewpointAvgF,DewpointLowF,HumidityHigh,HumidityAvg,HumidityLow,PressureMaxIn,PressureMinIn,WindSpeedMaxMPH,WindSpeedAvgMPH,GustSpeedMaxMPH,PrecipitationSumIn
2013-1-1,40,25,20,1,-6,-13,37,26,18,0.00,40.00,7,4,13,0.01
2013-1-2,44,28,19,0,-8,-16,37,22,8,0.00,40.00,6,4,16,0.00
2013-1-3,46,30,21,1,-10,-35,32,18,4,0.00,40.00,5,4,15,0.00
2013-1-4,51,35,31,-14,-24,-35,10,7,4,0.00,40.00,4,2,8,0.00
2013-1-5,56,40,35,-2,-14,-32,20,10,4,0.00,40.00,7,2,13,0.00
2013-1-6,36,26,18,19,8,-14,89,56,11,0.00,40.00,13,6,26,0.00
2013-1-7,32,23,15,18,12,-5,94,66,27,0.00,40.00,11,6,19,0.09
2013-1-8,54,40,31,22,13,-7,52,35,18,0.00,40.00,8,4,18,0.02
2013-1-9,57,44,37,21,13,5,40,28,20,0.00,40.00,10,4,21,0.01
2013-1-10,35,24,8,17,10,-7,89,60,16,0.00,40.00,18,9,31,0.00
2013-1-11,27,14,8,7,-3,-22,84,51,19,0.00,40.00,8,4,27,0.13
2013-1-12,27,13,4,8,2,-18,88,65,35,0.00,40.00,7,2,10,0.01
2013-1-13,28,14,3,8,-3,-19,76,49,21,0.00,40.00,5,2,10,0.01
2013-1-14,25,14,2,1,-12,-27,62,33,14,0.00,40.00,8,4,21,0.01
2013-1-15,35,25,15,18,12,2,75,57,44,0.00,40.00,9,5,20,0.00
2013-1-16,48,35,25,19,12,0,68,41,26,0.00,40.00,7,5,24,0.00
2013-1-17,55,41,33,3,-2,-9,27,16,9,0.00,40.00,6,4,11,0.00
2013-1-18,51,40,35,4,-1,-8,23,17,11,0.00,40.00,8,5,12,0.00
2013-1-19,53,40,35,-1,-6,-17,18,13,9,0.00,40.00,7,5,10,0.00
2013-1-20,53,41,33,-2,-12,-20,15,10,7,0.00,40.00,4,2,7,0.00
2013-1-21,50,40,32,-4,-11,-20,16,11,7,0.00,40.00,5,3,11,0.00
2013-1-22,55,44,38,22,4,-27,51,21,5,0.00,40.00,13,8,24,0.00
2013-1-23,48,41,35,30,24,18,83,50,40,0.00,40.00,20,10,37,0.06
2013-1-24,47,38,35,43,36,32,100,91,74,0.00,40.00,17,7,37,0.68
2013-1-25,38,35,33,38,35,33,100,99,97,0.00,40.00,13,8,24,1.37
2013-1-26,44,36,32,43,34,22,100,93,65,0.00,40.00,4,2,12,0.50
2013-1-27,37,30,19,26,4,-23,86,39,12,0.00,40.00,12,7,29,0.02
2013-1-28,31,19,15,23,10,-4,91,68,39,0.00,40.00,7,4,19,0.14
2013-1-29,44,34,19,22,14,0,58,44,37,0.00,40.00,8,6,21,0.01
2013-1-30,44,34,27,21,19,16,73,54,38,0.00,40.00,5,3,12,0.00
2013-1-31,45,38,32,22,14,6,61,38,23,0.00,40.00,6,4,13,0.00